GFSCGP_sfc_dewp_021.txt.gz
Dewpoint
29 24 23 21 23 21 20 22 21 22 23 23 21 22 22 22 23 23 25 27 29 30 30 31 31 32 32 30 30 31 32 35 37 43 47 48 50 51 52 54 55 55 55 53
27 25 26 27 27 25 24 22 21 22 24 23 22 21 22 24 24 25 26 28 30 30 30 30 31 31 32 31 31 31 31 31 34 39 42 45 44 43 46 50 51 52 53 52
26 26 28 26 25 24 24 23 22 22 23 22 22 23 23 25 26 27 29 30 30 30 29 29 29 29 29 30 31 31 31 31 31 34 36 40 41 41 41 42 45 48 49 50
26 27 26 27 27 25 23 25 25 23 20 18 25 19 23 24 26 28 28 29 30 30 29 28 28 28 27 27 28 30 31 31 31 32 32 32 35 35 37 38 38 38 41 46
28 25 24 25 24 25 24 25 23 22 21 24 22 22 24 25 25 27 28 28 29 29 28 28 27 27 28 28 25 26 28 30 31 31 31 31 31 32 33 33 33 34 37 41
26 25 24 25 25 25 25 23 22 23 24 22 24 24 23 18 24 27 28 28 28 28 28 28 28 27 26 27 25 24 24 25 28 29 28 30 30 30 30 31 31 32 33 35
26 25 25 24 22 25 22 22 23 21 20 20 25 23 23 24 26 27 27 28 28 28 27 26 26 26 25 25 24 22 23 23 24 25 25 25 27 29 30 30 31 31 31 31
26 25 24 25 25 25 24 26 25 18 18 18 25 22 23 27 27 27 26 26 26 26 28 27 25 25 25 23 23 22 21 22 24 24 25 24 23 23 24 26 29 30 30 31
25 24 27 26 26 27 25 24 29 26 21 21 24 24 27 27 25 24 24 25 24 24 23 27 25 23 24 23 22 21 20 20 22 24 25 25 24 23 22 22 24 26 27 25
29 25 29 27 28 28 28 32 27 28 16 17 22 21 21 26 24 24 24 23 23 22 23 21 21 20 20 21 20 20 20 19 19 22 24 24 25 24 23 22 23 24 25 25
31 30 28 29 27 26 25 24 26 28 27 20 16 18 26 27 24 23 23 22 21 20 17 23 15 17 18 19 18 19 21 21 20 19 21 24 24 23 22 21 21 22 24 25
34 33 25 28 29 28 28 27 28 25 21 23 25 21 26 25 25 24 23 22 22 20 15 24 21 19 19 19 18 16 18 21 22 20 20 21 23 23 22 21 20 21 20 23
35 29 19 18 22 32 30 30 29 30 31 25 23 21 27 24 24 24 23 23 24 21 15 18 19 12 10 8 10 9 12 15 20 20 20 20 20 20 21 21 22 21 22 21
35 31 22 15 12 25 23 24 24 27 19 18 18 18 18 23 28 28 31 31 31 22 14 10 11 9 10 14 13 12 12 13 16 17 18 19 19 20 20 21 22 22 22 22
30 23 27 27 27 25 24 23 22 21 21 20 16 16 18 19 19 17 11 27 27 22 12 10 11 12 10 10 12 15 16 15 16 16 18 18 20 19 21 21 21 22 22 20
30 19 24 17 23 22 21 21 21 21 19 18 15 14 16 15 16 15 10 9 7 7 11 7 9 11 11 11 13 15 17 19 18 19 20 20 20 20 20 21 20 20 19 18
22 19 12 9 19 15 8 13 12 14 15 14 12 15 19 17 15 8 8 10 8 7 7 7 7 10 12 14 17 16 17 18 20 19 19 19 20 19 19 20 19 18 16 15
22 16 11 4 5 -3 8 9 11 12 14 16 19 16 17 14 7 9 8 9 10 13 12 11 11 10 17 18 17 17 19 19 20 18 17 17 19 17 17 15 13 12 12 12
24 19 8 6 -3 6 7 7 6 6 5 16 14 19 14 9 10 7 7 10 10 10 11 12 17 19 18 15 15 17 18 18 18 14 15 16 14 11 10 8 8 8 8 8
18 21 14 -3 2 -2 5 13 14 12 5 11 13 16 12 13 9 9 11 13 12 13 14 20 20 18 14 13 14 15 15 14 11 13 11 9 9 7 6 5 3 4 4 5
2 1 13 12 4 5 14 16 13 1 3 14 16 14 16 14 13 13 15 15 15 16 20 17 15 14 11 14 13 10 10 8 11 10 7 6 6 3 2 2 2 1 0 1
6 3 1 -2 -8 1 15 13 8 11 21 19 16 15 16 16 16 16 15 15 15 19 16 15 14 12 10 12 10 8 7 8 7 5 4 2 0 0 2 -1 -1 -1 -1 -2
3 8 3 8 7 14 16 12 16 20 19 19 15 16 17 17 15 15 14 14 18 15 14 13 11 10 9 9 9 7 6 5 4 -2 -4 -3 -1 -0 -0 -3 -3 -3 -2 -2
12 11 10 9 10 12 12 15 14 17 17 16 18 18 18 16 15 15 14 16 15 15 13 12 8 6 4 6 8 3 3 3 -7 -9 -3 -1 -2 -3 -3 -3 -3 -4 -4 -4
11 12 10 11 10 10 11 13 13 15 16 15 15 15 15 16 15 15 17 17 15 13 11 8 6 5 4 5 2 -1 1 -4 -5 -3 -1 -2 -2 -4 -4 -3 -4 -3 0 2
13 11 10 9 10 11 10 13 15 16 16 16 17 16 17 18 17 16 15 14 12 10 8 6 4 2 -0 -3 -4 -5 -9 -10 -8 -3 -2 -3 -3 -4 -4 -5 -4 4 7 10

GFSCGP_sfc_dewp_024.txt.gz
Dewpoint
29 23 19 20 24 18 19 20 20 22 23 23 21 21 23 23 23 26 28 29 29 29 30 30 30 30 30 31 31 31 31 32 36 40 45 47 48 47 47 53 53 55 56 53
26 22 23 24 24 23 22 22 22 23 24 23 22 22 23 25 26 26 29 29 29 29 28 27 26 26 28 29 30 31 31 31 32 35 38 43 42 41 43 43 43 44 50 53
25 26 28 26 25 24 24 23 22 22 23 22 26 22 23 26 29 30 30 30 29 28 27 27 26 25 24 26 28 30 31 31 31 32 33 34 35 36 35 35 35 37 40 46
26 27 26 26 26 26 24 26 25 25 21 19 25 18 23 24 27 28 29 29 28 27 27 27 26 25 24 24 24 27 29 29 29 31 31 31 31 31 32 33 33 33 34 35
27 27 25 25 26 26 25 25 22 22 20 22 20 18 21 25 25 27 28 28 28 27 27 26 26 25 25 24 23 24 25 25 26 26 30 30 30 31 31 31 31 32 32 33
26 25 25 24 25 25 25 22 25 25 23 20 22 20 22 21 24 27 27 28 27 27 27 27 26 25 24 23 22 23 23 23 23 22 22 24 25 23 24 25 25 27 30 31
25 25 25 24 22 24 22 24 22 20 19 20 24 23 23 26 27 27 27 28 27 26 25 25 25 24 23 21 20 20 22 23 24 22 21 21 21 20 20 22 24 24 23 25
26 25 24 25 23 23 23 25 23 15 18 19 24 20 22 26 28 28 27 27 27 27 27 25 25 24 22 21 19 18 20 22 24 23 23 23 22 21 20 21 22 23 23 24
25 26 26 25 26 26 25 25 28 24 16 19 23 24 26 26 25 25 25 25 25 25 27 25 23 23 21 20 20 17 17 18 21 23 23 23 23 22 21 21 21 22 23 21
28 25 28 27 29 29 26 29 26 26 15 16 19 22 22 24 23 24 24 24 23 23 22 25 21 20 21 20 20 19 18 17 17 20 22 23 22 22 21 20 20 20 21 22
30 29 28 28 27 27 25 25 26 27 24 16 13 16 23 25 24 23 24 24 23 23 23 20 18 18 18 17 18 19 19 18 18 18 19 21 23 22 22 21 21 21 21 21
33 31 24 27 28 29 26 25 26 22 19 23 22 19 26 27 24 25 24 23 22 21 18 21 16 18 18 18 17 16 20 20 20 19 19 18 20 19 19 20 20 21 21 22
34 29 16 20 22 30 27 30 29 30 27 19 20 21 26 25 25 25 24 24 23 21 16 23 19 17 15 14 15 14 15 19 21 20 19 18 18 19 19 20 21 21 22 22
36 29 24 21 15 25 22 24 24 25 19 19 22 20 21 23 25 26 27 25 24 22 17 17 18 12 12 11 11 11 12 14 17 16 17 17 18 19 18 20 21 21 21 21
33 30 27 26 27 26 26 25 24 23 21 17 12 14 15 18 19 19 19 20 30 28 14 12 13 13 10 11 12 14 15 15 17 16 18 18 20 19 20 20 20 20 20 18
29 22 25 19 22 24 23 23 23 23 22 21 20 20 20 16 16 15 10 15 28 23 19 13 12 11 11 10 12 13 16 18 18 18 18 18 18 18 19 19 19 17 14 13
26 21 17 14 17 14 6 13 15 13 15 13 8 12 18 17 17 14 13 10 5 4 7 10 9 10 11 11 13 16 17 19 18 18 17 16 18 18 18 15 12 10 9 10
22 21 19 8 5 -5 7 9 10 10 12 17 18 16 18 19 17 11 10 9 9 11 12 9 10 9 11 17 17 18 17 19 18 16 14 15 15 13 11 9 8 7 7 7
23 19 10 7 -0 6 5 7 9 9 8 14 15 15 18 15 8 7 8 9 10 11 12 13 12 13 18 16 15 16 17 17 15 14 15 14 11 8 8 6 5 5 4 4
23 20 13 -0 -2 -3 4 11 12 9 4 10 12 13 17 11 6 7 9 11 12 13 14 15 20 18 14 13 13 14 14 12 11 13 9 8 8 4 4 4 3 3 3 3
8 11 15 10 -1 4 13 15 12 0 2 11 14 15 15 12 10 13 13 13 14 16 16 19 18 15 12 13 13 10 10 9 11 10 8 7 5 3 2 2 2 1 -0 1
8 8 7 3 4 1 15 14 8 12 18 18 18 17 15 14 14 15 15 16 16 16 20 18 15 12 11 11 9 8 7 9 7 5 3 2 -1 -1 1 -2 -1 -2 -3 -3
4 9 4 9 8 14 17 15 16 17 17 19 17 16 15 15 14 15 15 15 15 16 17 15 13 11 9 9 8 6 6 5 4 -3 -7 -7 -4 -1 -0 -3 -3 -4 -4 -5
10 10 9 8 9 12 14 16 14 18 17 18 17 16 17 15 16 16 15 15 15 17 15 12 9 7 7 7 8 4 2 3 -10 -14 -8 -3 -3 -3 -3 -2 -2 -4 -5 -5
11 12 10 10 10 10 12 13 14 14 17 17 17 16 16 17 16 15 16 18 17 16 13 10 8 7 6 6 4 1 0 -6 -9 -9 -4 -3 -4 -6 -3 -2 -3 -2 0 3
13 10 9 8 9 9 10 13 14 15 15 16 16 16 17 17 16 17 17 17 16 12 9 6 4 3 2 1 -0 -1 -7 -11 -13 -7 -4 -4 -3 -4 -4 -4 -4 4 8 10

GFSCGP_sfc_dewp_027.txt.gz
Dewpoint
28 21 19 21 23 17 17 20 19 21 23 22 22 22 22 24 25 27 28 28 28 28 27 26 26 27 28 30 30 30 31 32 34 37 43 44 39 39 38 38 39 42 48 52
25 19 20 21 23 23 22 20 20 23 24 22 23 22 23 27 28 28 28 28 28 26 25 25 24 24 25 27 28 29 30 31 32 33 35 39 37 37 34 34 34 35 35 39
23 24 26 23 24 23 23 22 22 22 23 23 26 22 23 28 30 29 29 28 27 26 25 25 23 23 23 24 26 27 28 29 31 31 32 32 33 32 32 32 32 32 33 33
26 27 26 26 24 25 24 26 24 24 23 20 24 18 20 25 28 28 28 27 26 26 26 25 24 22 22 23 23 23 24 24 26 30 29 29 29 28 31 30 29 30 30 29
26 27 26 25 26 27 25 26 25 21 21 21 20 18 19 26 26 27 28 27 26 26 25 24 23 22 22 22 22 22 21 20 20 21 23 23 21 25 23 23 21 22 24 24
28 25 25 26 25 26 26 22 25 26 23 20 21 19 20 23 24 27 28 27 27 26 25 24 24 22 20 20 21 22 20 21 20 18 18 17 18 16 17 19 20 21 22 22
26 26 25 24 22 23 23 23 21 19 19 21 24 21 21 26 27 27 27 27 27 26 25 24 22 20 17 17 19 20 21 21 21 20 19 18 18 17 17 19 20 20 20 20
25 24 25 25 23 22 22 24 23 16 17 19 24 22 23 26 28 28 28 27 26 25 25 25 23 20 17 16 16 18 20 21 21 21 21 21 20 19 19 20 20 21 21 22
25 26 26 24 26 25 23 23 26 24 14 18 23 24 25 26 25 26 27 26 26 27 26 24 24 21 19 17 15 15 16 19 21 21 21 21 20 20 19 19 20 20 20 19
27 25 27 26 26 28 26 30 25 25 15 17 20 21 21 24 25 25 25 25 25 26 27 24 22 22 20 19 18 16 15 15 17 19 21 21 20 20 20 19 19 19 19 20
29 28 27 27 26 26 26 27 26 27 23 16 12 14 22 25 25 24 25 25 24 23 23 25 20 20 20 19 18 17 16 16 17 17 18 19 19 18 18 18 19 19 20 20
32 29 24 26 29 29 28 27 26 23 20 22 21 18 26 26 25 25 25 25 25 24 23 21 19 18 17 16 17 18 19 18 18 18 17 17 17 18 18 18 19 20 20 21
33 28 19 24 24 27 26 27 27 28 24 16 19 19 27 26 25 25 25 25 24 23 21 22 16 17 16 16 16 15 17 19 20 20 18 18 18 18 18 19 19 20 21 21
37 30 28 24 22 25 24 27 26 25 23 22 23 23 24 25 25 25 25 25 25 23 18 22 17 17 16 14 14 13 13 15 19 17 17 17 18 18 18 19 19 20 20 20
32 29 27 26 22 25 23 23 23 21 22 21 20 21 21 25 24 25 26 25 26 25 19 17 22 17 12 11 12 11 12 14 16 17 18 17 17 17 18 19 19 16 14 12
28 25 27 25 25 27 27 28 26 25 24 22 21 20 20 20 18 16 15 15 25 29 26 16 15 14 12 11 13 13 14 18 18 17 16 15 18 18 18 15 12 11 10 10
27 25 21 24 18 16 16 16 21 22 22 21 19 20 18 15 16 16 16 12 11 20 24 19 13 12 13 12 11 13 17 19 17 16 15 16 16 14 12 11 10 9 8 8
28 27 25 17 15 12 17 9 10 14 14 16 18 15 17 18 17 17 16 14 10 6 7 8 10 10 11 13 15 18 18 17 16 15 13 14 12 10 9 8 7 6 6 5
24 22 17 17 6 11 12 8 7 7 4 16 15 17 17 17 9 8 8 9 9 9 11 14 14 12 13 17 18 17 16 15 12 14 15 12 10 8 7 4 4 4 4 3
23 22 24 8 6 5 8 10 11 9 4 11 16 15 15 10 8 8 9 9 11 11 12 13 14 16 17 16 15 15 14 10 10 13 11 9 9 2 2 4 2 3 2 3
12 18 19 13 13 9 12 14 11 1 3 12 13 14 16 11 12 13 12 10 13 14 14 15 18 17 16 14 14 12 11 7 11 9 8 7 6 2 1 1 1 0 -1 1
10 9 8 8 6 5 15 14 10 12 15 16 14 12 15 15 14 13 12 12 14 16 16 19 18 16 13 13 12 10 7 10 7 7 4 2 -4 -3 -0 -9 -4 -5 -5 -5
6 10 9 12 10 14 17 15 16 17 16 17 15 15 17 16 15 14 14 15 16 16 16 19 17 13 11 10 9 7 8 7 4 1 -6 -10 -6 -3 -2 -8 -4 -4 -6 -6
11 10 10 10 10 11 13 15 16 17 15 14 17 15 17 16 15 14 14 15 15 17 17 16 13 11 9 7 8 5 5 5 -4 -4 -7 -5 -6 -5 -6 -2 -1 -4 -5 -5
10 12 11 10 9 10 11 14 15 16 16 16 16 16 16 16 15 15 16 18 18 17 15 13 13 11 8 6 4 2 3 -2 -5 -5 -3 -5 -6 -8 -5 -3 -3 -2 -0 2
12 9 8 7 9 9 8 12 14 14 14 15 16 16 17 18 17 17 17 17 17 16 12 10 8 6 4 2 1 -0 -4 -6 -6 -4 -4 -5 -4 -5 -4 -4 -5 3 8 10

GFSCGP_sfc_dewp_030.txt.gz
Dewpoint
28 22 21 22 20 19 17 18 18 20 23 22 22 22 23 25 27 27 27 27 26 25 25 24 24 25 26 28 28 29 31 32 34 36 41 37 34 34 34 34 35 34 36 38
23 20 22 22 24 20 20 18 18 21 23 23 23 22 24 28 28 28 27 27 25 24 23 23 23 23 23 24 26 27 29 31 32 33 34 35 35 33 32 32 30 30 31 34
21 23 24 21 21 20 21 19 20 20 23 26 25 22 24 29 29 29 28 27 25 23 22 22 21 21 21 22 23 23 24 26 29 30 31 32 31 29 26 25 24 24 23 27
23 26 26 24 22 22 20 24 23 23 24 23 24 18 20 26 28 28 26 25 25 25 24 22 20 20 20 20 21 20 19 20 21 24 23 21 20 18 23 22 22 21 22 23
27 26 25 25 26 25 24 27 25 24 23 21 20 19 20 26 26 27 26 25 25 24 23 21 20 19 20 20 20 19 18 17 17 17 17 17 18 20 20 20 17 19 20 21
28 27 26 26 26 27 25 25 25 25 22 19 20 19 20 23 24 27 27 26 25 24 23 22 21 19 18 19 20 20 18 19 18 16 15 14 14 14 16 18 18 20 21 20
27 26 25 24 23 22 23 22 21 20 20 21 23 20 20 24 27 27 27 26 26 25 24 22 19 15 15 17 18 19 19 19 19 18 17 17 17 17 17 18 19 19 20 20
26 24 26 26 23 23 22 23 23 17 17 18 24 22 24 26 27 28 28 27 27 26 25 23 21 16 14 15 18 19 19 19 19 19 19 19 18 18 19 18 19 19 19 20
24 24 26 24 26 24 22 21 25 22 14 19 22 23 25 26 26 27 27 26 26 25 25 24 23 18 14 13 14 17 19 19 19 19 19 19 19 18 17 17 18 19 19 18
27 25 27 25 29 28 26 28 23 24 14 16 20 20 21 24 25 26 26 26 26 26 26 24 23 20 18 15 15 13 15 16 18 19 19 18 18 18 17 17 18 18 19 20
28 28 27 26 25 25 28 27 26 25 23 17 14 18 22 24 26 26 26 26 26 26 27 26 23 22 20 18 16 15 15 15 16 17 18 18 18 17 17 17 18 19 18 20
30 28 25 25 28 29 27 27 26 23 20 21 21 21 26 26 26 27 26 26 26 26 25 26 22 20 19 19 18 16 16 16 16 17 17 18 18 18 17 17 18 20 19 20
32 29 19 23 25 27 26 26 27 26 24 19 23 22 27 25 25 26 26 26 26 25 24 23 22 18 17 15 17 17 18 18 18 18 18 18 18 17 17 17 19 20 19 19
36 29 25 23 23 27 25 27 28 27 25 25 24 24 24 25 25 25 25 25 25 25 24 23 19 17 16 15 15 14 15 17 19 19 18 18 18 17 16 18 18 16 16 13
33 28 28 27 22 24 25 25 26 25 25 24 24 23 24 27 26 26 25 25 25 25 24 20 21 18 17 16 14 13 13 14 17 17 17 18 17 16 17 16 15 13 13 10
31 30 28 24 25 26 25 25 25 25 24 23 21 20 20 21 25 22 22 23 20 20 25 23 20 21 16 13 13 12 11 14 17 17 17 14 17 18 15 14 12 11 10 9
30 27 24 26 19 20 23 24 26 24 25 24 22 24 21 19 18 18 18 16 16 21 26 28 19 18 18 14 12 14 15 18 19 17 15 16 15 13 12 11 10 8 7 7
27 25 25 19 19 16 17 9 19 27 25 26 21 17 19 18 17 18 18 18 15 13 15 22 21 15 14 15 13 13 18 19 16 15 13 13 12 10 10 8 7 6 5 5
26 26 19 18 16 18 18 9 6 7 8 14 18 18 15 16 12 10 12 15 15 11 10 11 11 11 10 12 14 18 18 17 14 13 14 11 9 7 6 3 4 5 4 3
27 30 29 15 15 14 11 10 11 8 4 13 15 15 15 11 4 5 9 10 10 10 11 13 14 14 13 15 17 17 16 13 10 12 13 10 9 3 2 4 3 3 0 3
20 20 23 18 17 16 16 14 10 5 11 13 15 16 15 11 9 7 11 10 11 13 13 13 14 14 14 16 16 15 13 10 11 11 8 7 6 2 1 -0 1 -2 -3 0
16 18 16 17 15 13 15 13 9 14 17 17 15 11 13 12 10 13 12 12 11 12 13 16 16 16 16 16 15 13 12 10 9 6 6 5 2 -1 1 -9 -8 -8 -7 -8
9 16 14 18 16 15 15 16 17 17 16 15 13 13 13 12 13 13 13 13 12 13 14 16 17 17 14 14 14 12 10 8 5 3 2 -2 -2 1 0 -7 -5 -6 -10 -9
11 10 11 12 13 12 13 15 16 17 14 14 16 14 16 14 13 13 14 14 14 16 16 16 14 14 12 10 11 8 7 5 -1 -6 -1 0 -1 -1 -1 -1 -1 -8 -9 -6
12 11 12 12 9 10 11 13 13 15 17 15 15 15 15 15 15 15 15 17 17 17 16 14 15 15 13 9 6 3 3 0 -4 -4 -1 -0 -1 -2 -3 -3 -2 -3 -2 -0
11 9 7 7 8 7 8 12 13 14 14 15 15 14 17 17 17 17 17 17 17 17 14 12 12 12 9 7 3 -1 -2 -3 -4 -2 -1 -1 -2 -3 -3 -3 -4 3 8 11

GFSCGP_sfc_dewp_033.txt.gz
Dewpoint
28 24 23 23 21 22 20 19 17 20 23 24 23 22 23 26 27 27 26 25 24 24 24 23 24 24 25 26 28 29 32 33 36 38 38 35 33 32 30 29 30 31 34 35
23 22 24 24 23 20 19 19 18 20 23 23 22 23 24 28 27 28 26 24 24 23 22 22 21 22 22 23 23 25 27 29 32 34 35 34 30 26 24 23 23 23 26 30
21 23 23 21 22 21 21 19 19 19 25 25 24 23 25 28 29 28 27 25 23 22 21 20 19 19 19 19 20 20 22 24 25 28 30 27 24 22 19 19 19 21 21 23
22 25 24 22 21 20 19 22 21 22 23 21 24 20 22 27 27 27 26 24 24 23 22 19 18 17 18 18 18 18 19 19 20 20 19 19 16 14 18 18 20 20 21 22
29 25 26 26 25 23 24 26 24 25 24 22 21 20 21 26 26 27 26 24 25 23 20 19 18 18 18 19 18 18 17 16 16 16 16 16 16 19 19 19 18 18 19 20
28 27 27 26 26 25 26 25 25 25 23 19 22 21 20 22 24 27 27 25 25 24 22 20 19 18 17 18 18 18 16 16 16 16 15 14 15 15 16 17 17 18 19 19
27 26 25 25 23 24 23 23 21 21 21 20 22 20 21 23 27 28 27 25 25 24 22 21 17 16 16 16 17 17 17 16 17 16 16 16 16 16 15 16 16 16 17 18
27 25 25 25 24 24 23 24 23 17 18 20 24 21 23 26 27 28 28 26 25 24 23 22 17 15 15 18 18 17 17 17 18 17 17 18 17 17 17 17 17 18 18 19
26 25 26 24 25 24 22 22 26 22 14 20 22 23 25 27 27 27 27 26 25 25 24 23 21 15 13 16 18 17 17 18 18 18 18 17 16 16 16 17 17 18 18 17
26 25 27 25 27 28 25 26 23 24 15 15 20 21 22 24 25 27 26 26 25 26 25 25 22 18 15 14 16 17 18 18 18 18 17 17 17 17 17 17 16 17 18 18
28 28 27 26 24 25 27 25 25 25 24 19 16 19 23 23 25 26 27 26 26 26 25 25 24 22 18 16 15 14 16 17 19 18 18 18 18 17 17 17 17 17 18 17
30 29 26 25 27 27 28 25 26 24 21 22 22 22 26 25 25 27 27 27 27 27 26 26 25 23 20 18 16 14 15 16 17 18 18 18 18 18 17 17 18 18 16 16
31 29 23 26 26 27 26 26 27 26 25 21 20 23 27 26 26 27 27 27 27 27 27 27 25 22 20 18 17 15 16 16 18 18 18 18 18 17 16 17 17 15 13 13
33 30 27 25 25 27 26 26 27 26 22 23 23 24 25 25 25 26 26 27 26 26 26 25 24 23 19 17 16 16 16 17 19 19 18 18 18 17 16 17 14 11 10 9
33 30 27 27 24 27 27 26 27 25 25 24 24 25 27 26 26 26 26 26 25 25 25 24 24 22 19 17 15 15 15 17 19 19 19 18 19 16 16 14 12 11 11 7
35 33 29 27 26 25 24 25 27 27 26 26 25 24 25 27 26 26 25 25 25 25 25 25 23 23 19 17 17 15 14 15 18 18 18 18 18 18 16 14 12 10 8 7
33 31 30 30 26 27 27 26 25 25 25 26 23 26 23 22 22 24 25 25 24 21 19 22 24 22 21 18 17 15 14 16 18 19 19 18 18 16 13 10 9 7 6 6
31 31 31 17 23 20 19 10 24 27 26 25 22 19 24 25 22 21 20 20 17 16 19 24 26 22 20 20 16 15 17 18 19 19 17 16 14 12 10 8 6 5 5 4
32 31 22 20 20 23 18 7 20 24 22 25 26 25 16 16 14 13 17 18 18 17 16 18 23 23 17 16 16 16 18 19 18 17 16 14 12 10 8 6 4 4 4 3
30 31 31 19 18 18 18 11 9 9 13 13 24 23 17 12 10 10 11 14 15 16 14 12 14 13 11 12 15 17 17 17 16 16 14 13 10 6 5 5 4 4 3 4
22 22 26 21 20 22 22 15 11 14 18 18 17 18 16 13 12 9 9 10 13 14 13 13 14 14 14 15 17 17 16 15 16 14 12 9 8 5 4 3 3 2 0 1
20 21 20 21 18 18 16 11 13 19 18 19 16 15 16 13 9 9 10 11 11 12 13 16 14 13 14 17 17 16 15 15 12 10 8 6 3 5 3 -3 -1 -3 -3 -4
17 23 21 22 21 16 13 17 16 18 19 16 15 13 15 11 7 8 10 12 13 12 12 14 16 15 16 16 16 15 15 11 8 6 3 0 -0 2 1 -4 -2 -1 -3 -4
13 10 13 16 14 12 14 16 16 14 11 13 13 13 13 10 11 11 13 14 14 16 16 16 15 15 15 13 15 15 11 9 4 1 1 -0 -2 -0 -1 1 0 -1 -2 -3
16 12 13 12 9 12 12 14 15 16 16 15 14 14 13 14 13 13 15 17 18 17 16 15 15 16 16 13 11 8 7 5 2 -0 1 1 -1 -1 0 -0 0 -0 0 -0
11 9 7 9 8 8 8 12 14 15 15 17 16 16 17 17 16 16 17 17 17 16 14 13 14 13 11 7 6 4 3 3 1 -0 -1 -1 -0 -1 -1 -1 -2 3 8 11

GFSCGP_sfc_dewp_036.txt.gz
Dewpoint
29 25 24 24 24 23 22 21 21 20 21 23 23 22 22 25 26 27 26 24 24 24 24 25 27 29 32 34 35 37 39 40 42 42 41 38 34 31 30 30 31 32 34 36
25 25 26 26 25 22 21 22 22 22 21 23 22 22 23 26 26 27 26 24 24 24 23 23 24 26 27 29 31 33 34 36 36 37 35 31 26 23 22 24 23 23 26 27
24 25 26 23 23 22 22 21 21 21 24 24 23 22 24 28 29 28 27 25 24 24 22 21 22 22 25 25 27 28 30 31 31 28 26 24 22 22 20 19 19 19 19 21
24 25 23 23 21 22 21 23 22 22 21 22 24 23 25 25 27 28 27 24 23 23 21 19 19 19 21 21 23 23 25 25 24 25 24 23 21 18 17 16 17 18 19 20
25 25 26 24 24 23 26 25 23 23 24 24 23 22 25 25 25 27 26 24 24 23 20 18 17 17 16 20 21 19 19 18 18 18 19 18 17 17 16 16 16 16 18 20
29 28 28 27 27 25 28 27 25 26 25 24 26 23 24 22 24 27 27 24 24 22 19 17 17 17 16 18 18 18 15 14 15 15 15 16 17 15 16 16 15 16 16 17
29 28 26 27 26 26 26 26 25 24 24 24 23 24 24 24 26 27 27 24 24 22 19 17 16 14 14 15 17 16 13 13 14 14 14 15 15 14 14 14 15 15 15 16
30 28 27 26 29 27 25 26 27 26 23 22 25 22 23 26 28 28 29 26 24 23 20 18 16 15 15 16 15 13 13 14 14 14 15 16 14 12 13 15 15 16 16 16
28 28 27 25 25 28 24 24 28 25 23 26 22 23 25 27 27 28 28 26 24 24 21 19 17 15 14 15 16 14 14 15 15 14 14 15 14 14 14 16 16 16 17 14
28 25 27 26 27 29 25 27 25 25 26 24 21 22 22 26 25 27 28 27 25 24 23 21 17 15 14 15 16 14 14 14 16 15 14 14 15 16 16 16 16 16 16 15
28 29 27 26 25 25 26 24 25 25 26 27 23 21 25 26 26 26 27 28 26 25 24 22 20 16 14 15 16 14 15 15 16 16 17 18 18 17 17 16 16 16 15 14
32 30 29 25 27 27 26 25 25 24 25 24 24 24 23 25 26 28 27 28 28 26 25 24 23 20 14 14 15 15 15 16 17 17 17 18 18 18 17 16 16 16 13 13
32 32 32 30 27 28 26 26 25 27 34 31 29 27 26 26 26 27 28 28 28 27 26 25 25 23 18 14 13 12 14 16 18 17 18 18 19 18 17 17 16 13 12 10
33 33 31 28 28 27 27 27 27 26 28 26 27 25 23 25 26 26 28 29 28 28 27 26 26 24 22 19 14 11 10 12 17 17 18 19 19 18 17 17 14 12 10 9
31 32 30 28 28 28 29 28 27 25 24 26 26 26 26 27 27 26 27 28 28 28 27 27 28 27 25 23 19 15 12 13 15 16 17 18 20 19 17 17 15 13 11 7
35 34 32 31 30 28 28 29 28 27 26 26 26 26 28 28 28 27 27 28 27 28 28 28 28 28 27 24 22 19 15 15 17 17 18 18 22 21 21 18 15 12 10 9
34 34 32 31 33 28 27 29 28 27 27 27 25 30 31 28 27 27 27 27 27 27 27 27 27 27 26 24 23 21 19 19 23 24 26 26 25 22 19 16 13 11 9 8
35 35 34 31 29 23 27 18 28 27 28 30 31 34 33 30 26 27 29 29 27 27 26 26 27 25 25 25 23 21 23 22 23 25 26 24 22 21 17 13 11 9 8 8
35 33 25 24 25 29 17 13 26 28 29 30 30 28 24 18 18 18 20 22 25 23 22 24 25 26 24 23 22 22 22 22 22 21 23 22 21 20 15 14 11 9 10 9
31 34 32 24 26 25 22 14 17 19 20 28 33 31 24 17 23 25 17 20 19 20 20 19 20 22 23 21 20 21 21 21 21 21 21 21 20 18 16 13 12 12 11 10
25 26 28 25 26 27 31 17 12 22 30 26 32 29 21 21 22 16 17 16 18 19 19 16 16 15 14 15 20 20 21 20 22 23 21 19 17 15 13 12 11 11 9 7
24 25 25 26 25 23 17 11 18 26 20 23 20 20 19 16 11 12 10 10 11 13 14 18 16 14 14 20 21 21 19 20 21 20 18 16 15 13 11 10 9 7 7 6
23 27 27 28 27 18 15 20 18 20 26 17 17 17 17 14 8 9 10 12 13 14 14 16 19 17 15 21 22 22 21 20 18 17 16 13 11 11 10 8 7 7 7 6
20 14 22 24 19 14 15 17 16 15 15 16 17 18 17 15 9 10 12 13 13 20 21 22 21 20 21 21 21 22 20 18 15 15 12 10 8 8 7 7 7 8 8 7
18 15 18 13 9 12 14 17 19 16 15 14 14 14 14 13 12 12 18 21 21 21 21 21 21 20 20 22 21 21 17 15 14 13 11 11 9 7 8 6 7 6 7 7
13 11 11 15 10 11 11 15 17 17 17 18 17 17 18 19 17 18 20 20 21 21 21 20 20 20 21 19 19 15 14 13 13 12 10 9 7 6 5 5 5 9 11 13

GFSCGP_sfc_dewp_042.txt.gz
Dewpoint
32 28 27 25 26 24 24 23 23 24 23 24 24 24 24 24 25 25 26 26 26 26 27 29 34 39 43 43 43 43 42 42 42 41 39 36 34 32 32 32 32 30 32 33
30 28 29 29 28 27 25 24 24 25 23 23 23 23 24 24 24 24 25 27 26 25 25 29 33 38 40 41 42 43 43 42 42 38 36 33 30 27 25 26 25 25 27 28
28 29 29 27 28 26 26 25 24 24 25 24 23 23 24 26 25 24 26 28 27 25 25 28 32 35 37 38 39 39 38 37 35 31 28 26 27 27 25 24 23 23 23 25
28 29 27 27 26 26 24 26 25 26 24 23 25 23 26 27 27 25 25 28 26 25 25 27 31 33 34 33 34 34 34 33 31 29 28 28 27 22 22 22 23 23 24 24
28 27 27 28 27 27 26 28 26 27 26 29 27 26 26 27 26 26 27 29 27 25 25 26 28 29 28 29 30 29 27 26 27 28 26 23 21 22 22 22 20 21 23 24
28 31 28 28 28 28 30 29 28 28 28 26 28 27 26 26 26 27 28 29 27 25 25 24 25 24 25 26 26 25 23 23 24 24 23 22 20 20 21 21 21 21 21 22
27 28 30 30 28 29 28 28 27 25 24 25 25 28 27 28 27 28 29 29 27 25 23 22 21 21 23 24 24 22 20 20 20 21 21 21 20 20 19 19 20 20 20 20
26 26 29 30 29 29 28 29 29 23 25 26 24 23 27 29 29 29 29 29 27 24 22 20 20 20 21 23 22 17 18 17 18 19 19 20 19 19 19 20 21 21 21 20
26 28 31 30 30 31 29 27 31 28 22 23 26 25 26 28 28 28 28 27 25 24 22 20 20 18 20 21 20 18 18 17 18 19 19 17 17 17 19 20 21 21 20 18
31 28 30 27 28 29 29 30 27 27 20 21 25 25 25 27 26 27 28 26 25 24 21 20 19 18 19 19 18 17 17 17 18 19 18 17 18 19 20 20 20 18 18 18
32 32 27 27 26 27 28 26 27 28 28 25 23 24 25 27 27 27 28 26 25 24 22 20 19 18 18 19 18 17 17 17 18 19 19 20 20 19 19 20 20 20 19 17
33 33 28 26 28 28 29 28 27 26 25 26 26 25 26 27 28 28 28 27 26 25 23 21 19 18 17 18 18 17 17 18 19 19 19 21 20 19 20 19 19 19 17 17
34 34 29 29 29 28 26 26 28 28 32 26 24 26 25 26 28 28 28 28 26 26 24 21 19 17 16 16 18 16 16 19 20 19 20 21 20 20 19 19 19 18 17 15
36 35 31 28 28 30 26 26 27 28 26 26 26 26 24 25 26 28 29 29 28 26 25 22 20 18 16 16 17 15 15 18 20 19 21 21 20 20 20 20 19 18 17 15
35 33 33 32 33 32 28 27 26 26 26 26 26 26 27 27 26 27 29 29 28 27 26 24 22 21 16 16 17 15 15 17 19 18 20 21 22 21 21 21 20 18 17 15
34 32 33 32 34 35 34 34 28 27 26 26 26 26 28 29 26 27 29 30 29 28 27 26 24 23 19 15 16 16 14 17 19 19 20 21 23 23 23 22 20 18 17 15
34 34 33 31 33 34 32 35 34 33 28 27 25 27 29 27 26 26 27 29 29 29 28 28 26 26 24 19 17 16 15 18 21 22 23 23 24 23 22 21 19 18 17 15
34 34 34 32 33 26 31 34 35 34 34 31 29 31 32 31 28 30 31 30 30 30 30 29 29 28 28 27 23 21 21 20 22 23 24 24 24 23 22 20 19 17 16 15
38 35 33 31 31 31 31 24 29 32 32 35 32 30 30 30 32 30 31 31 31 31 31 31 31 30 30 29 26 25 24 23 21 22 24 24 24 23 22 20 18 17 15 15
33 37 34 30 29 27 24 21 29 31 27 33 35 34 30 33 28 32 29 32 33 32 32 33 32 30 30 29 28 27 25 24 23 24 24 24 24 23 22 20 17 16 14 14
29 32 29 31 29 30 26 20 26 26 25 27 30 30 30 32 29 32 28 26 27 27 28 28 26 26 26 25 25 25 24 24 24 23 24 24 24 23 21 17 15 15 12 15
27 27 27 30 28 26 20 19 26 26 23 29 29 28 27 21 23 24 23 23 21 21 23 22 22 23 23 25 24 24 23 23 23 23 22 21 20 20 18 16 12 13 12 8
28 30 29 30 30 21 20 21 22 22 27 25 30 28 22 17 17 18 18 17 17 18 18 19 19 18 19 22 23 23 22 22 21 20 17 14 15 16 15 14 12 9 8 9
24 24 29 29 28 23 25 29 25 18 16 19 22 27 20 14 14 13 12 12 13 20 20 21 19 18 17 18 21 18 20 19 17 14 14 14 14 12 11 12 12 10 9 8
23 26 27 21 22 27 27 29 30 28 15 15 19 20 19 14 11 12 18 18 19 20 21 19 19 19 18 18 16 16 17 17 16 15 13 13 12 10 9 10 11 11 8 11
19 22 25 26 22 27 27 29 31 29 20 15 16 17 19 16 15 17 20 20 20 20 20 18 17 16 15 16 15 15 15 15 15 13 13 12 11 8 9 8 6 15 15 15

GFSCGP_sfc_dewp_045.txt.gz
Dewpoint
30 26 25 25 24 23 23 23 22 23 23 23 24 23 24 25 25 25 25 26 26 26 28 31 36 42 43 43 43 42 41 40 40 39 37 34 31 30 30 29 29 29 29 29
28 27 28 29 28 26 25 23 23 25 23 23 23 23 25 25 25 25 25 26 26 26 28 31 36 40 42 43 43 42 42 42 42 38 34 31 26 25 24 25 24 26 27 27
28 29 31 30 28 26 25 24 23 23 25 24 22 22 23 25 25 25 25 26 27 26 27 30 34 39 41 41 43 43 42 39 33 29 27 24 24 24 22 23 23 24 25 27
28 30 28 28 27 26 24 26 26 25 24 22 24 21 25 26 26 25 24 26 27 25 26 30 33 37 38 39 38 37 35 31 29 27 25 23 22 20 22 22 24 24 24 24
27 28 28 27 27 27 26 28 26 26 25 27 26 24 24 27 26 27 27 25 27 25 26 30 33 35 35 34 33 33 33 30 29 27 27 23 21 21 22 22 21 22 23 24
27 29 28 28 28 27 29 28 28 29 28 25 26 25 24 25 27 28 28 27 26 25 26 29 32 30 29 30 29 27 27 27 28 26 22 20 19 19 20 20 20 21 22 22
27 27 29 28 26 29 29 26 24 24 24 24 27 26 25 28 27 28 28 28 26 25 26 28 27 27 27 26 25 24 23 23 23 22 20 19 18 17 17 18 19 20 19 20
25 24 28 29 27 26 27 27 26 21 23 24 24 24 26 30 30 29 29 29 26 25 25 25 25 25 25 24 24 21 21 21 21 21 20 20 20 19 18 19 20 20 19 19
25 25 30 29 30 27 27 26 30 28 18 22 26 26 27 28 27 28 29 28 25 24 23 23 22 23 23 23 22 20 19 20 20 20 20 20 19 19 20 21 21 20 21 18
28 29 29 27 30 30 29 30 27 27 18 19 24 25 26 26 26 27 28 28 26 24 22 21 20 21 22 22 19 18 18 18 19 19 18 18 19 20 20 20 20 19 19 19
31 32 27 27 27 28 28 27 28 29 27 23 21 22 28 28 27 27 28 28 26 24 21 20 20 19 21 21 18 17 17 18 19 18 18 19 20 20 20 20 19 18 19 18
30 33 26 27 28 28 29 28 28 26 23 26 25 24 25 26 28 28 28 28 27 25 22 20 19 18 19 19 18 17 17 18 19 19 18 20 20 20 20 19 18 20 18 18
34 33 29 28 28 28 27 28 28 28 27 25 23 25 26 28 29 28 28 28 26 25 23 20 19 17 17 17 17 16 17 18 20 19 20 20 19 19 19 19 19 18 18 16
36 35 30 27 28 28 26 27 28 28 26 26 26 26 27 25 27 28 28 29 26 26 23 20 19 17 16 16 16 16 16 18 19 19 20 19 19 19 19 19 19 18 18 15
35 33 33 32 32 30 28 26 27 27 27 26 26 26 27 28 26 27 29 29 26 26 24 22 21 19 16 16 17 15 16 18 18 18 19 20 20 20 20 20 20 19 18 15
36 32 34 32 33 33 31 30 28 27 27 27 27 27 29 29 29 27 29 29 28 26 25 24 22 20 18 16 17 16 15 19 19 18 20 20 22 21 22 21 20 19 18 17
34 33 32 31 32 32 31 33 32 30 28 27 26 28 30 29 28 27 28 29 29 28 27 26 23 22 19 17 18 16 16 20 21 22 24 24 23 22 22 22 20 18 17 16
34 35 34 32 33 26 32 34 36 35 34 32 29 31 32 31 31 30 29 30 30 29 28 27 25 24 22 19 19 19 20 22 22 24 25 24 24 23 22 21 20 18 17 15
39 36 32 30 31 31 31 27 33 33 33 36 35 35 34 31 30 28 30 31 31 30 30 29 29 27 25 20 19 20 21 21 22 23 23 23 24 24 22 21 20 18 17 16
39 39 35 31 29 27 27 25 28 34 31 35 37 37 36 31 29 31 30 31 31 31 32 32 31 29 28 25 22 22 22 21 21 22 22 23 25 25 23 22 20 17 17 16
32 34 31 32 31 31 28 22 27 29 27 24 28 34 32 31 32 33 31 32 31 31 32 32 32 31 31 30 27 23 23 21 21 23 24 24 24 24 23 21 18 15 15 15
30 31 29 31 30 28 28 23 28 27 23 27 29 29 30 26 26 28 28 27 27 29 29 28 28 27 26 27 27 25 24 24 23 23 23 22 21 22 20 18 13 14 14 14
29 31 29 31 31 28 21 27 23 23 26 27 30 28 24 22 22 22 23 23 24 25 23 24 26 24 24 23 26 25 23 22 20 20 19 18 16 18 17 16 14 13 14 14
27 26 30 29 29 24 22 26 25 18 17 19 26 25 19 17 19 18 17 18 18 22 21 20 21 21 19 18 20 18 20 19 18 16 13 13 16 14 13 16 15 14 12 11
26 28 28 26 22 27 28 27 29 28 16 17 19 24 20 17 15 16 19 20 20 20 19 18 18 17 16 16 14 13 15 16 16 14 14 14 12 12 10 11 9 11 8 10
22 25 27 27 27 29 30 26 29 30 25 17 18 19 18 17 16 19 19 19 19 18 17 16 14 15 13 13 12 12 14 16 16 14 13 12 11 8 9 7 6 16 15 16

GFSCGP_sfc_dewp_048.txt.gz
Dewpoint
29 25 24 25 22 23 22 23 22 23 24 23 23 22 23 25 26 25 25 26 26 27 28 31 37 43 43 44 43 43 41 41 40 39 37 36 33 31 31 31 31 30 30 29
28 25 26 27 27 24 23 22 22 24 25 24 23 23 24 25 25 25 25 25 26 27 28 31 37 42 42 43 43 43 41 41 40 39 33 31 28 26 26 27 27 27 27 26
27 27 30 28 28 26 25 24 24 23 25 24 23 22 23 24 26 25 26 25 26 27 27 30 35 41 42 42 43 43 42 41 37 31 26 24 24 24 24 24 25 25 26 27
29 30 28 29 27 27 25 27 26 25 24 22 26 20 24 25 25 25 25 25 26 27 27 30 34 39 42 42 43 43 42 34 30 28 26 25 24 22 23 23 24 24 24 25
27 29 29 28 28 28 26 27 26 26 25 25 25 23 23 26 25 26 27 27 26 27 27 29 33 39 41 40 41 39 35 31 29 27 26 24 22 22 23 23 22 22 22 23
27 29 29 29 28 28 29 28 28 29 27 23 24 23 23 24 25 27 28 28 26 27 27 28 33 39 38 36 35 35 32 30 28 28 25 22 20 21 21 20 20 21 21 22
27 27 28 28 26 30 28 24 22 23 23 22 26 24 23 26 28 28 28 29 27 27 26 30 34 36 35 33 32 32 31 29 28 25 22 20 19 18 17 18 18 19 19 19
24 23 27 28 26 27 27 25 24 18 21 22 25 25 26 29 29 30 29 30 27 26 26 30 32 35 33 32 29 29 28 27 25 22 20 20 18 17 17 17 19 18 18 18
25 24 29 29 29 27 26 26 28 26 16 21 26 26 28 29 27 29 29 29 26 25 26 29 31 31 30 29 27 25 24 25 24 22 20 19 18 18 18 20 20 19 20 18
27 25 28 27 29 29 26 28 25 27 18 18 24 25 26 27 27 27 28 29 26 25 25 27 28 28 28 27 26 23 22 22 23 21 20 19 19 20 20 20 19 18 19 18
29 30 27 27 27 27 27 27 28 28 27 22 19 22 28 28 27 27 27 29 27 25 24 24 25 26 26 25 22 20 20 20 21 20 20 20 21 20 20 19 19 18 18 17
30 32 26 26 28 28 30 28 28 26 23 26 25 24 27 27 28 29 28 28 28 25 23 23 22 22 23 23 21 19 19 20 20 20 19 20 20 20 20 19 18 19 17 18
31 30 24 27 30 28 27 28 28 29 28 24 23 25 26 26 27 28 28 28 28 26 23 22 21 20 21 22 20 18 18 19 20 19 19 20 20 19 19 18 17 18 17 17
34 34 28 25 26 28 26 27 29 28 27 26 25 25 26 25 26 27 28 29 27 26 23 21 20 19 20 20 18 17 17 18 20 19 19 19 19 19 19 18 18 18 17 16
34 32 31 29 30 28 28 27 28 28 28 26 26 26 27 28 26 26 28 29 27 26 23 21 21 20 18 19 18 16 16 18 19 18 19 19 20 20 20 20 19 19 18 15
36 33 32 31 31 30 29 29 28 28 28 28 28 28 29 29 30 28 28 29 27 26 26 23 22 20 18 17 18 16 16 19 19 18 19 19 21 21 21 22 20 19 18 17
35 36 34 32 32 31 31 32 29 28 28 28 27 29 31 30 29 29 29 29 29 28 27 26 23 21 19 17 18 17 17 19 20 21 23 23 23 22 22 22 21 19 18 17
35 36 35 33 33 27 33 34 34 33 30 30 29 31 32 31 31 32 32 30 30 30 29 27 25 22 21 19 19 18 20 22 22 23 24 24 23 23 23 23 21 19 19 17
40 37 33 31 31 31 31 31 32 33 33 35 33 33 33 33 30 32 31 31 31 31 31 29 27 24 21 20 20 21 21 22 22 22 24 24 24 25 24 23 21 20 20 19
40 39 34 31 29 27 29 29 32 35 31 35 36 36 36 34 32 34 36 30 31 32 31 30 28 25 21 20 21 21 21 22 22 22 23 24 26 26 25 23 23 24 22 20
33 35 31 32 31 33 28 23 31 30 28 23 28 31 32 34 36 33 31 31 31 31 31 30 28 25 23 21 22 22 22 22 23 27 29 27 25 26 25 25 24 20 19 18
31 32 32 33 31 29 29 26 31 29 24 28 28 29 31 31 28 29 29 29 30 31 31 31 30 29 29 25 24 24 24 26 26 25 24 24 25 25 25 24 18 17 17 15
29 34 31 32 32 31 30 29 26 26 27 29 30 29 28 26 26 26 27 27 28 28 28 29 29 28 27 27 26 24 23 22 22 23 23 22 22 22 21 19 16 13 14 16
29 30 32 32 31 27 24 24 24 19 20 20 28 26 23 21 22 22 23 23 24 24 25 25 26 25 21 19 22 22 22 21 22 20 18 17 19 16 15 17 16 16 15 15
29 31 30 29 27 27 30 27 26 22 16 19 21 23 19 21 19 20 22 22 22 21 21 23 24 23 21 19 18 17 19 19 18 15 14 14 15 15 12 12 12 13 8 13
25 28 29 29 29 31 31 30 28 29 21 18 19 20 19 19 19 21 21 21 21 19 18 19 17 18 16 17 15 14 15 18 17 15 14 14 14 10 10 10 6 17 16 19